Proserpine Hamilton Isla, Australia

9:58 AM AEST on December 11, 2016 (GMT +1000)
Proserpine Hamilton Isla

Weather History for 94368 - July, 2013

Change the Weather History Date:

Monday, July 15, 2013

  Actual Average Record
Temperature  
Mean Temperature 67 °F -  
Max Temperature 71 °F - - ()
Min Temperature 63 °F - - ()
Cooling Degree Days 2    
Growing Degree Days 17 (Base 50)    
Moisture  
Dew Point 64 °F    
Average Humidity 87    
Maximum Humidity 100    
Minimum Humidity 73    
Precipitation  
Precipitation 0.31 in - - ()
Sea Level Pressure  
Sea Level Pressure 30.11 in    
Wind  
Wind Speed 21 mph ()    
Max Wind Speed 40 mph    
Max Gust Speed 41 mph    
T = Trace of Precipitation, MM = Missing Value Source: Averaged Metar Reports

Daily Weather History Graph

Daily Weather History Graph

Search for Another Location

Airport or City:

Trip Planner

Search our weather history database for the weather conditions in past years. The results will help you decide how hot, cold, wet, or windy it might be!

Date:

Astronomy

Jul. 15, 2013 Rise Set
Actual Time 6:39 AM AEST 5:40 PM AEST
Civil Twilight 6:16 AM AEST 6:04 PM AEST
Nautical Twilight 5:49 AM AEST 6:31 PM AEST
Astronomical Twilight 5:22 AM AEST 6:58 PM AEST
Moon 10:53 AM AEST (7/15) 11:38 PM AEST (7/15)
Length of Visible Light 11h 47m
Length of Day
11h 00m
Waxing Crescent, 39% of the Moon is Illuminated
Jul 15
Waxing Crescent
Jul 16
First Quarter
Jul 23
Full
Jul 30
Last Quarter
Aug 7
New

Hourly Weather History & Observations

Time (AEST) Temp. Dew Point Humidity Pressure Visibility Wind Dir Wind Speed Gust Speed Precip Events Conditions
12:00 AM 67 °F 61 °F 76% 30.14 in - ESE 24.2 mph - -  
12:00 AM 66.2 °F 60.8 °F 83% 30.12 in - ESE 24.2 mph - N/A   Unknown
12:18 AM 68.0 °F 64.4 °F 88% 30.12 in - ESE 21.9 mph 38.0 mph N/A   Unknown
12:30 AM 66.2 °F 64.4 °F 94% 30.12 in - ESE 23.0 mph - N/A   Unknown
12:55 AM 66.2 °F 64.4 °F 94% 30.12 in - SE 20.7 mph 34.5 mph N/A   Unknown
12:57 AM 64.4 °F 60.8 °F 88% 30.12 in - East 35.7 mph - N/A   Unknown
1:02 AM 64.4 °F 62.6 °F 94% 30.12 in - ESE 29.9 mph 41.4 mph N/A   Unknown
1:09 AM 64.4 °F 64.4 °F 100% 30.12 in - East 16.1 mph 31.1 mph N/A   Unknown
1:15 AM 66.2 °F 64.4 °F 94% 30.12 in - East 19.6 mph 35.7 mph N/A   Unknown
1:17 AM 64.4 °F 60.8 °F 88% 30.09 in - East 35.7 mph - N/A   Unknown
1:30 AM 64.4 °F 62.6 °F 94% 30.09 in - East 29.9 mph - N/A   Unknown
1:43 AM 66.2 °F 62.6 °F 88% 30.09 in - ESE 25.3 mph 39.1 mph N/A   Unknown
1:55 AM 66.2 °F 64.4 °F 94% 30.09 in - East 28.8 mph - N/A   Unknown
2:00 AM 64.4 °F 60.8 °F 88% 30.09 in - East 24.2 mph - N/A   Unknown
2:25 AM 64.4 °F 62.6 °F 94% 30.09 in - ENE 19.6 mph 31.1 mph N/A   Unknown
2:30 AM 66.2 °F 64.4 °F 94% 30.09 in - East 24.2 mph - N/A   Unknown
3:00 AM 66 °F 63 °F 88% 30.09 in - ESE 21.9 mph - -  
3:00 AM 66.2 °F 62.6 °F 88% 30.09 in - ESE 21.9 mph - N/A   Unknown
3:30 AM 66.2 °F 64.4 °F 94% 30.06 in - ESE 26.5 mph - N/A   Unknown
4:00 AM 68.0 °F 62.6 °F 83% 30.06 in - East 19.6 mph - N/A   Unknown
4:30 AM 68.0 °F 64.4 °F 88% 30.06 in - East 24.2 mph - N/A   Unknown
5:00 AM 68.0 °F 64.4 °F 88% 30.06 in - ESE 23.0 mph - N/A   Unknown
5:16 AM 68.0 °F 64.4 °F 88% 30.06 in - ESE 24.2 mph 41.4 mph N/A   Unknown
5:30 AM 66.2 °F 62.6 °F 88% 30.09 in - ESE 23.0 mph - N/A   Unknown
6:00 AM 67 °F 61 °F 75% 30.10 in - ESE 17.3 mph - -  
6:00 AM 66.2 °F 60.8 °F 83% 30.09 in - ESE 17.3 mph - N/A   Unknown
6:30 AM 68.0 °F 64.4 °F 88% 30.09 in - ESE 24.2 mph - N/A   Unknown
7:00 AM 68.0 °F 64.4 °F 88% 30.12 in - ESE 24.2 mph - N/A   Unknown
7:18 AM 68.0 °F 62.6 °F 83% 30.12 in - ESE 20.7 mph 35.7 mph N/A   Unknown
7:21 AM 66.2 °F 60.8 °F 83% 30.09 in - East 33.4 mph - N/A   Unknown
7:37 AM 68.0 °F 60.8 °F 78% 30.12 in - East 26.5 mph 38.0 mph N/A   Unknown
8:00 AM 69.8 °F 62.6 °F 78% 30.12 in - ESE 20.7 mph - N/A   Unknown
8:30 AM 69.8 °F 62.6 °F 78% 30.12 in - ESE 21.9 mph - N/A   Unknown
9:00 AM 71 °F 64 °F 73% 30.15 in - ESE 40.3 mph - -  
9:00 AM 71.6 °F 64.4 °F 78% 30.15 in - ESE 20.7 mph - N/A   Unknown
9:30 AM 71.6 °F 62.6 °F 73% 30.15 in - ESE 18.4 mph - N/A   Unknown
10:00 AM 71.6 °F 64.4 °F 78% 30.15 in - SE 19.6 mph - N/A   Unknown
10:30 AM 69.8 °F 64.4 °F 83% 30.12 in - SE 19.6 mph - N/A   Unknown
11:00 AM 68.0 °F 64.4 °F 88% 30.12 in - East 13.8 mph - N/A   Unknown
11:10 AM 66.2 °F 62.6 °F 88% 30.12 in - East 27.6 mph - N/A   Unknown
11:17 AM 66.2 °F 62.6 °F 88% 30.12 in - East 23.0 mph 34.5 mph N/A   Unknown
11:30 AM 68.0 °F 66.2 °F 94% 30.12 in - East 20.7 mph - N/A   Unknown
12:00 PM 69 °F 64 °F 81% 30.12 in - ESE 16.1 mph - -  
12:00 PM 68.0 °F 64.4 °F 88% 30.12 in - ESE 16.1 mph - N/A   Unknown
12:30 PM 69.8 °F 66.2 °F 88% 30.09 in - ESE 21.9 mph - N/A   Unknown
1:00 PM 69.8 °F 62.6 °F 78% 30.09 in - ESE 23.0 mph - N/A   Unknown
1:30 PM 69.8 °F 64.4 °F 83% 30.09 in - ESE 20.7 mph - N/A   Unknown
2:00 PM 71.6 °F 64.4 °F 78% 30.09 in - ESE 17.3 mph - N/A   Unknown
2:30 PM 69.8 °F 64.4 °F 83% 30.06 in - SE 17.3 mph - N/A   Unknown
3:00 PM 69 °F 66 °F 86% 30.09 in - SSE 17.3 mph - -  
3:00 PM 69.8 °F 66.2 °F 88% 30.06 in - SSE 17.3 mph - N/A   Unknown
3:30 PM 69.8 °F 64.4 °F 83% 30.06 in - SE 18.4 mph - N/A   Unknown
4:00 PM 69.8 °F 62.6 °F 78% 30.09 in - ESE 17.3 mph - N/A   Unknown
4:30 PM 68.0 °F 64.4 °F 88% 30.09 in - SE 20.7 mph - N/A   Unknown
4:57 PM 68.0 °F 64.4 °F 88% 30.09 in - SE 18.4 mph 31.1 mph N/A   Unknown
5:00 PM 66.2 °F 62.6 °F 88% 30.09 in - ESE 21.9 mph - N/A   Unknown
5:30 PM 68.0 °F 62.6 °F 83% 30.09 in - ESE 17.3 mph - N/A   Unknown
6:00 PM 68 °F 64 °F 85% 30.10 in - SE 17.3 mph - -  
6:00 PM 68.0 °F 64.4 °F 88% 30.09 in - SE 17.3 mph - N/A   Unknown
6:30 PM 68.0 °F 66.2 °F 94% 30.09 in - SE 18.4 mph - N/A   Unknown
7:00 PM 68.0 °F 66.2 °F 94% 30.12 in - SSE 19.6 mph - N/A   Unknown
7:30 PM 68.0 °F 66.2 °F 94% 30.12 in - SSE 18.4 mph - N/A   Unknown
8:00 PM 68.0 °F 66.2 °F 94% 30.12 in - SE 19.6 mph - N/A   Unknown
8:30 PM 68.0 °F 64.4 °F 88% 30.12 in - SE 19.6 mph - N/A   Unknown
9:00 PM 68 °F 65 °F 87% 30.14 in - SE 35.8 mph - -  
9:00 PM 68.0 °F 64.4 °F 88% 30.12 in - SE 18.4 mph - N/A   Unknown
9:30 PM 69.8 °F 64.4 °F 83% 30.12 in - ESE 20.7 mph - N/A   Unknown
10:00 PM 69.8 °F 62.6 °F 78% 30.12 in - ESE 20.7 mph - N/A   Unknown
10:19 PM 69.8 °F 64.4 °F 83% 30.12 in - ESE 17.3 mph 31.1 mph N/A   Unknown
10:30 PM 66.2 °F 64.4 °F 94% 30.15 in - ESE 21.9 mph - N/A   Unknown
11:00 PM 66.2 °F 64.4 °F 94% 30.12 in - SE 17.3 mph - N/A   Unknown
11:30 PM 68.0 °F 66.2 °F 94% 30.12 in - SE 16.1 mph - N/A   Unknown